Regional Weather Roundup
Issued by NWS

Home | Current Version | Previous Version | Text Only | Print | Product List | Glossary On
Versions: 1 2 3 4 5 6 7 8 9 10 11 12 13 14 15 16 17 18 19 20 21 22 23 24 25 26 27 28 29 30 31 32 33 34 35 36 37 38 39 40 41 42 43 44 45 46 47 48 49 50
375
ASUS44 KLIX 270101
RWRLA
LOUISIANA WEATHER ROUNDUP
NATIONAL WEATHER SERVICE NEW ORLEANS LA
700 PM CST MON JAN 26 2015

NOTE: "FAIR" INDICATES FEW OR NO CLOUDS BELOW 12,000 FEET WITH NO
      SIGNIFICANT WEATHER AND/OR OBSTRUCTIONS TO VISIBILITY.
      SKY/WX - SKY CONDITION AND SIGNIFICANT WEATHER.
      TMP - AIR TEMPERATURE.    DP   - DEWPOINT TEMPERATURE.
      RH  - RELATIVE HUMIDITY.  PRES - PRESSURE.
      HX  - HEAT INDEX.         WCI  - WIND CHILL INDEX.

*  THESE STATIONS ARE NOT NWS OR FAA STATIONS AND ARE NOT UNDER
   NWS QUALITY CONTROL.

LAZ040-048-061>063-065-066-069-270200-
SOUTHEAST LOUISIANA

CITY           SKY/WX    TMP DP  RH WIND       PRES   REMARKS
N.O. AUDUBON   NOT AVBL
N.O. INTL ARPT PTCLDY    53  36  52 NW6       30.10R
N.O. LAKEFRONT CLEAR     54  45  71 W8        30.11R
N.O. DOWNTOWN* FAIR      57  34  41 CALM      30.11R
SLIDELL        CLEAR     49  37  63 CALM      30.09R
BATON ROUGE    CLEAR     50  36  58 CALM      30.11R
BOOTHVILLE     CLEAR     50  43  77 W6        30.11R
BELLE CHASSE   PTCLDY    46  34  62 SW3       30.10R
BOGALUSA*        N/A     45  37  73 CALM      30.10S
GALLIANO*      NOT AVBL
NEW ROADS*     NOT AVBL
GONZALES*      NOT AVBL
HAMMOND*       NOT AVBL
HOUMA*         CLEAR     54  36  51 W3        30.11S
PORT FOURCHON* CLEAR     55  46  71 W9G16     30.14S

$$

LAZ041-044-053-054-270200-
SOUTHWEST LOUISIANA

CITY           SKY/WX    TMP DP  RH WIND       PRES   REMARKS
LAKE CHARLES   PTCLDY    53  38  56 W3        30.13R
LAFAYETTE      CLEAR     50  40  68 S3        30.12R
PATTERSON      CLEAR     54  36  50 W7        30.14R
SALT POINT       N/A     53  48  83 W6        30.12R
NEW IBERIA     CLEAR     50  41  71 SW3       30.13R
CHENAULT AIRPK CLEAR     55  37  50 CALM      30.13

$$

LAZ027-028-270200-
CENTRAL LOUISIANA

CITY           SKY/WX    TMP DP  RH WIND       PRES   REMARKS
FORT POLK      CLEAR     53  38  58 S2        30.09S
ALEXANDRIA INT CLEAR     50  39  66 CALM      30.08S
ALEXANDRIA     CLEAR     46  38  73 CALM      30.09S

$$

LAZ001-002-270200-
NORTHWEST LOUISIANA

CITY           SKY/WX    TMP DP  RH WIND       PRES   REMARKS
SHREVEPORT     PTCLDY    54  36  50 SW5       30.05F
BARKSDALE AFB  CLEAR     52  33  47 S5        30.05F
DTN SHREVEPORT CLEAR     56  33  42 SW5       30.05F

$$

LAZ014-016-270200-
NORTHEAST LOUISIANA

CITY           SKY/WX    TMP DP  RH WIND       PRES   REMARKS
MONROE         CLEAR     50  35  56 SW5       30.06S
TALLULAH       CLEAR     48  37  65 SW5       30.05F

$$




USA.gov is the U.S. government's official web portal to all federal, state and local government web resources and services.